AAL2782 KIND-KDFW

Flight info

Callsign AAL2782
Flight time N/A
Altitude 36000
Route ROCKY1 STL KK45I FSM KOMMA RRNET SEEVR4
Aircraft B738/M-SDE2E3FGHIRWXY/LB1

Departure

Time N/A
Airport Indianapolis International Airport (KIND)

Arrival

Time 2026-05-05 00:48
Airport Dallas Fort Worth International Airport (KDFW)
Time Latitude Longitude Altitude Speed Heading
2026-05-05 00:31 33.44878 -96.46913 11996 ft 326 kts 44°
2026-05-05 00:31 33.46357 -96.44905 11974 ft 326 kts 45°
2026-05-05 00:31 33.47475 -96.42533 11990 ft 334 kts 73°
2026-05-05 00:31 33.47556 -96.39757 12011 ft 337 kts 102°
2026-05-05 00:32 33.46708 -96.37173 12002 ft 334 kts 125°
2026-05-05 00:32 33.45156 -96.35161 11982 ft 328 kts 148°
2026-05-05 00:32 33.43203 -96.33819 11998 ft 322 kts 163°
2026-05-05 00:32 33.41059 -96.33393 12001 ft 307 kts 192°
2026-05-05 00:33 33.39103 -96.34178 12015 ft 293 kts 216°
2026-05-05 00:33 33.37543 -96.35686 12003 ft 286 kts 231°
2026-05-05 00:33 33.36207 -96.37448 12003 ft 287 kts 233°
2026-05-05 00:33 33.34876 -96.39265 11998 ft 287 kts 233°
2026-05-05 00:34 33.33553 -96.41056 12006 ft 288 kts 233°
2026-05-05 00:34 33.32250 -96.42886 11766 ft 289 kts 241°
2026-05-05 00:34 33.31572 -96.45091 11546 ft 281 kts 259°
2026-05-05 00:34 33.31107 -96.47353 11229 ft 279 kts 256°
2026-05-05 00:35 33.30570 -96.49566 10908 ft 277 kts 254°
2026-05-05 00:35 33.29989 -96.51752 10569 ft 275 kts 253°
2026-05-05 00:35 33.29397 -96.53889 10248 ft 273 kts 252°
2026-05-05 00:35 33.28807 -96.56032 9938 ft 269 kts 255°
2026-05-05 00:36 33.28552 -96.58183 9700 ft 260 kts 265°
2026-05-05 00:36 33.28461 -96.60318 9386 ft 254 kts 265°
2026-05-05 00:36 33.28386 -96.62437 9040 ft 254 kts 265°
2026-05-05 00:36 33.28308 -96.64540 8735 ft 253 kts 264°
2026-05-05 00:37 33.28250 -96.65953 8544 ft 251 kts 264°
2026-05-05 00:37 33.28221 -96.66608 8447 ft 251 kts 264°
2026-05-05 00:37 33.28132 -96.68690 8143 ft 250 kts 264°
2026-05-05 00:37 33.28044 -96.70763 7851 ft 249 kts 263°
2026-05-05 00:38 33.27951 -96.72831 7575 ft 250 kts 263°
2026-05-05 00:38 33.27857 -96.74910 7263 ft 251 kts 263°
2026-05-05 00:38 33.27760 -96.76996 6973 ft 251 kts 262°
2026-05-05 00:38 33.27664 -96.79079 6674 ft 251 kts 262°
2026-05-05 00:39 33.27567 -96.81152 6394 ft 251 kts 262°
2026-05-05 00:39 33.27473 -96.83228 6102 ft 249 kts 262°
2026-05-05 00:39 33.27338 -96.85255 6013 ft 239 kts 258°
2026-05-05 00:39 33.27122 -96.87182 5995 ft 232 kts 256°
2026-05-05 00:40 33.26879 -96.89067 5992 ft 228 kts 256°
2026-05-05 00:40 33.26623 -96.90934 5992 ft 229 kts 256°
2026-05-05 00:40 33.26366 -96.92833 5991 ft 233 kts 256°
2026-05-05 00:40 33.26122 -96.94745 5995 ft 234 kts 256°
2026-05-05 00:41 33.25748 -96.96604 5984 ft 226 kts 238°
2026-05-05 00:41 33.24647 -96.97878 6015 ft 223 kts 216°
2026-05-05 00:41 33.23453 -96.99072 6002 ft 223 kts 223°
2026-05-05 00:41 33.22312 -97.00317 5994 ft 221 kts 221°
2026-05-05 00:42 33.21159 -97.01513 5993 ft 221 kts 220°
2026-05-05 00:42 33.19846 -97.02479 5979 ft 228 kts 198°
2026-05-05 00:42 33.18241 -97.02723 5666 ft 235 kts 188°
2026-05-05 00:42 33.16610 -97.02815 5362 ft 234 kts 185°
2026-05-05 00:43 33.14994 -97.02855 5071 ft 230 kts 184°
2026-05-05 00:43 33.13409 -97.02871 4782 ft 224 kts 183°
2026-05-05 00:43 33.11874 -97.02878 4509 ft 217 kts 183°
2026-05-05 00:43 33.10385 -97.02886 4228 ft 211 kts 183°
2026-05-05 00:44 33.08950 -97.02893 3938 ft 202 kts 183°
2026-05-05 00:44 33.07575 -97.02901 3667 ft 193 kts 182°
2026-05-05 00:44 33.06258 -97.02910 3426 ft 186 kts 182°
2026-05-05 00:44 33.04996 -97.02914 3183 ft 176 kts 182°
2026-05-05 00:45 33.03800 -97.02919 2955 ft 169 kts 182°
2026-05-05 00:45 33.02632 -97.02930 2737 ft 169 kts 181°
2026-05-05 00:45 33.01451 -97.02936 2518 ft 171 kts 180°
2026-05-05 00:45 33.00264 -97.02941 2279 ft 168 kts 180°
2026-05-05 00:46 32.99097 -97.02948 2055 ft 170 kts 180°
2026-05-05 00:46 32.97925 -97.02956 1822 ft 164 kts 179°
2026-05-05 00:46 32.96828 -97.02961 1642 ft 150 kts 178°
2026-05-05 00:46 32.95818 -97.02966 1433 ft 140 kts 179°
2026-05-05 00:47 32.94851 -97.02973 1250 ft 138 kts 179°
2026-05-05 00:47 32.93884 -97.02979 1094 ft 141 kts 179°
2026-05-05 00:47 32.92899 -97.02982 918 ft 141 kts 180°
2026-05-05 00:47 32.91913 -97.02991 737 ft 141 kts 180°
2026-05-05 00:48 32.90952 -97.02993 627 ft 130 kts 180°
2026-05-05 00:48 32.90173 -97.02996 619 ft 91 kts 180°
2026-05-05 00:48 32.89696 -97.03014 618 ft 47 kts 192°
2026-05-05 00:48 32.89537 -97.03099 623 ft 3 kts 209°
2026-05-05 00:49 32.89520 -97.03110 615 ft 6 kts 209°
2026-05-05 00:49 32.89458 -97.03152 625 ft 11 kts 218°
2026-05-05 00:49 32.89500 -97.03196 618 ft 14 kts
2026-05-05 00:49 32.89633 -97.03196 622 ft 21 kts
2026-05-05 00:50 32.89786 -97.03195 622 ft 22 kts
2026-05-05 00:50 32.89936 -97.03194 619 ft 22 kts
2026-05-05 00:50 32.90088 -97.03193 620 ft 21 kts
2026-05-05 00:50 32.90232 -97.03191 615 ft 20 kts 360°
2026-05-05 00:51 32.90330 -97.03231 619 ft 14 kts 276°
2026-05-05 00:51 32.90331 -97.03346 615 ft 14 kts 274°
2026-05-05 00:51 32.90396 -97.03418 619 ft 12 kts 315°
2026-05-05 00:51 32.90421 -97.03484 614 ft 6 kts 289°
2026-05-05 00:52 32.90424 -97.03497 614 ft 0 kts 289°